This is the latest recevied weather packets stored in our database for station/object KC3ROS. If no packets are shown the sender has not sent any weather packets the latest 10 day(s).
| Time | Temp. | Humidity | Pressure | Rain* | Wind** | Luminosity | Snow |
|---|---|---|---|---|---|---|---|
| 1777835204 | 14.44° C | 41% | 1013.8 hPa | 0 mm | - | 782 W/m² | - |
| 1777834901 | 13.89° C | 43% | 1013.8 hPa | 0 mm | - | 193 W/m² | - |
| 1777834597 | 15° C | 39% | 1013.8 hPa | 0 mm | - | 118 W/m² | - |
| 1777834293 | 14.44° C | 40% | 1013.7 hPa | 0 mm | - | 800 W/m² | - |
| 1777833988 | 13.33° C | 43% | 1014 hPa | 0 mm | - | 835 W/m² | - |
| 1777833685 | 12.78° C | 45% | 1014.3 hPa | 0 mm | - | 170 W/m² | - |
| 1777833381 | 12.78° C | 49% | 1013.8 hPa | 0 mm | - | 173 W/m² | - |
| 1777833079 | 12.78° C | 45% | 1014.3 hPa | 0 mm | - | 141 W/m² | - |
| 1777832777 | 14.44° C | 43% | 1014 hPa | 0 mm | - | 225 W/m² | - |
| 1777832475 | 13.89° C | 40% | 1014.4 hPa | 0 mm | - | 804 W/m² | - |
| 1777832171 | 13.89° C | 45% | 1014.3 hPa | 0 mm | - | 156 W/m² | - |
| 1777831868 | 13.89° C | 40% | 1014.4 hPa | 0 mm | - | 872 W/m² | - |
| 1777831565 | 13.33° C | 41% | 1014.2 hPa | 0 mm | - | 820 W/m² | - |
| 1777831263 | 14.44° C | 41% | 1014.3 hPa | 0 mm | - | 821 W/m² | - |
| 1777830959 | 13.33° C | 40% | 1014.5 hPa | 0 mm | - | 826 W/m² | - |
| 1777830657 | 12.78° C | 48% | 1014.6 hPa | 0 mm | - | 821 W/m² | - |
| 1777830354 | 12.22° C | 47% | 1014.7 hPa | 0 mm | - | 195 W/m² | - |
| 1777830050 | 13.33° C | 41% | 1014.8 hPa | 0 mm | - | 136 W/m² | - |
| 1777829745 | 12.22° C | 45% | 1014.8 hPa | 0 mm | - | 129 W/m² | - |
| 1777829442 | 12.78° C | 44% | 1014.8 hPa | 0 mm | - | 137 W/m² | - |
| 1777829139 | 13.33° C | 45% | 1014.8 hPa | 0 mm | - | 162 W/m² | - |
| 1777828836 | 12.78° C | 46% | 1014.8 hPa | 0 mm | - | 134 W/m² | - |
| 1777828533 | 12.22° C | 45% | 1015.1 hPa | 0 mm | - | 152 W/m² | - |
| 1777828230 | 13.33° C | 49% | 1015 hPa | 0 mm | - | 163 W/m² | - |
| 1777827926 | 11.67° C | 49% | 1014.8 hPa | 0 mm | - | 111 W/m² | - |
* Rain latest hour (hover to see other rain measurements)
** Current wind speed in m/s (hover to see current wind gust speed)